Temperature
10 10 10 10 10 10 10 10 9 9 9 9 10 10 9 9 9 8 8 8 8 7 7 7 7 6 6 6 6 6 6 6 6 6 6 6 6 6
9 9 9 9 9 9 9 9 9 9 9 9 9 9 9 8 8 8 8 7 7 7 6 6 6 6 5 5 5 5 5 5 6 6 6 6 6 6
9 9 9 9 9 9 8 8 8 8 8 8 8 8 8 8 8 7 7 7 6 6 6 6 5 5 5 5 5 5 5 5 5 5 5 5 5 6
8 8 8 8 8 8 8 8 8 8 8 8 8 8 7 7 7 7 6 6 6 6 5 5 5 4 4 4 4 4 4 4 5 5 5 5 5 5
7 7 7 7 7 7 7 7 7 7 7 7 7 7 7 6 6 6 6 5 5 5 5 4 4 4 4 4 4 4 4 4 4 4 5 5 5 5
6 6 6 6 6 6 6 6 6 6 6 6 6 6 6 6 5 5 5 5 4 4 4 3 3 3 3 3 3 3 4 4 4 4 4 4 4 4
6 6 6 6 6 6 6 6 6 5 5 5 5 5 5 5 5 5 5 4 4 3 3 3 3 3 3 3 3 3 3 3 3 3 3 4 4 4
5 5 5 5 5 5 5 5 5 5 5 5 5 5 5 5 5 5 4 3 3 3 3 3 2 2 2 2 2 2 2 3 3 3 3 3 3 3
4 4 4 4 4 4 4 4 4 4 4 5 4 5 5 4 4 4 3 3 3 3 3 2 2 2 2 2 2 2 2 2 2 2 2 2 3 3
3 3 3 3 3 3 3 3 4 4 4 4 4 4 4 4 3 3 3 3 2 2 2 2 2 2 1 1 1 1 1 2 2 2 2 2 2 2
3 3 2 3 3 3 2 3 3 3 3 3 3 3 3 3 3 3 2 2 2 2 1 1 1 1 1 1 1 1 1 1 1 1 1 1 2 2
2 2 2 2 2 2 2 2 2 2 2 2 2 2 2 2 2 2 2 2 2 1 1 1 1 0 0 0 0 1 1 1 1 1 1 1 1 1
1 1 1 1 1 1 1 1 1 1 1 1 1 1 1 1 1 1 1 1 1 1 1 0 0 0 -0 0 0 0 0 0 1 1 1 1 1 1
0 0 1 0 0 0 0 1 1 1 0 0 0 1 1 1 1 1 0 0 0 0 0 0 0 0 -0 -0 -0 -0 0 0 0 0 0 0 0 0
-0 -0 -0 -0 -0 -0 -0 -0 -0 -0 -0 -0 -0 -0 -0 -0 -0 -0 -0 -1 -1 -1 -1 -1 -1 -0 -1 -1 -0 -0 -0 -0 -0 -0 -0 0 0 0
-1 -1 -1 -1 -1 -1 -1 -1 -1 -1 -1 -1 -1 -1 -1 -1 -1 -1 -1 -1 -1 -1 -1 -1 -1 -1 -1 -1 -1 -1 -0 -0 -0 -0 -0 -0 -0 -0
-2 -2 -1 -1 -1 -1 -2 -2 -2 -2 -1 -1 -1 -1 -1 -1 -1 -2 -2 -1 -1 -1 -2 -2 -2 -2 -2 -2 -2 -1 -1 -1 -1 -1 -1 -0 -0 -0
-3 -2 -2 -2 -2 -2 -2 -2 -2 -2 -2 -2 -2 -2 -2 -2 -2 -2 -2 -2 -2 -2 -2 -2 -2 -2 -3 -3 -2 -2 -2 -1 -1 -1 -1 -1 -1 -1
-3 -3 -3 -3 -3 -3 -3 -3 -3 -2 -2 -2 -2 -2 -2 -2 -2 -2 -3 -3 -3 -3 -3 -2 -3 -3 -3 -3 -3 -2 -2 -2 -2 -1 -1 -1 -1 -1
-4 -4 -4 -4 -4 -4 -4 -3 -3 -3 -3 -3 -3 -3 -3 -3 -3 -3 -3 -3 -3 -3 -3 -3 -3 -3 -3 -3 -3 -3 -2 -2 -2 -2 -2 -2 -2 -2
-4 -4 -4 -4 -4 -4 -4 -4 -4 -4 -3 -3 -3 -3 -3 -3 -3 -3 -3 -3 -3 -3 -3 -3 -3 -4 -4 -4 -3 -3 -3 -3 -3 -2 -2 -2 -2 -2
-5 -5 -5 -5 -5 -5 -5 -4 -4 -4 -4 -4 -4 -4 -4 -4 -4 -4 -4 -4 -4 -4 -4 -4 -4 -4 -4 -4 -3 -3 -3 -3 -3 -3 -3 -3 -3 -3
-5 -5 -5 -5 -5 -5 -5 -5 -5 -5 -5 -4 -4 -4 -4 -4 -4 -4 -4 -4 -4 -4 -4 -4 -5 -5 -5 -4 -4 -4 -4 -4 -4 -4 -4 -4 -3 -3
Wind_Speed
7 8 6 5 5 5 5 6 6 6 8 7 5 5 8 8 10 9 8 9 9 8 7 7 6 4 3 1 1 2 3 5 6 7 7 8 9 9
6 7 7 5 5 5 6 6 6 7 7 5 5 4 6 7 10 9 9 10 10 10 9 8 7 5 4 2 0 2 3 4 5 6 7 7 8 9
5 7 8 6 6 6 6 6 6 6 8 4 2 3 5 6 6 8 8 8 8 10 10 9 8 7 5 3 1 1 2 3 5 6 7 7 8 8
7 7 8 6 7 6 6 7 7 6 6 7 4 4 5 7 6 6 6 7 8 10 10 9 8 8 6 5 3 1 1 3 4 5 6 7 7 8
7 7 7 7 8 6 7 7 6 5 5 5 4 3 2 3 4 3 4 3 6 8 10 9 9 8 7 6 4 2 1 2 3 4 6 7 7 8
6 7 7 8 9 8 7 7 6 6 5 5 4 4 3 3 4 4 4 3 3 4 7 8 9 8 8 7 5 3 1 1 2 3 5 6 7 7
5 6 7 9 10 9 7 7 7 7 6 6 6 4 5 5 7 5 5 3 3 3 3 3 5 4 4 6 6 4 2 1 1 2 3 5 6 7
6 6 6 7 9 11 11 11 11 9 9 8 7 8 8 7 6 6 5 4 4 4 4 3 3 3 4 5 6 5 4 2 1 1 2 3 5 6
5 5 5 5 7 6 9 10 11 14 14 10 10 10 8 9 9 8 7 5 5 5 4 3 3 3 4 7 8 7 5 4 2 1 1 2 4 5
5 5 6 6 6 6 6 7 7 8 9 8 9 8 7 8 10 9 8 5 3 2 4 3 3 3 2 5 7 8 7 5 4 2 1 2 3 5
5 5 6 6 9 10 7 7 7 6 7 8 9 8 10 12 11 8 7 6 3 3 3 3 3 2 2 2 4 7 8 7 5 3 2 2 3 5
5 5 8 9 11 10 6 6 7 6 4 4 4 6 7 10 15 10 10 8 4 4 5 4 4 3 2 1 1 3 4 5 5 4 3 2 3 4
6 6 6 11 11 11 9 6 8 6 4 4 3 3 3 4 5 6 6 7 5 4 6 5 4 3 3 2 1 1 2 2 3 3 3 2 3 4
7 6 7 12 12 11 9 8 9 6 3 3 3 4 4 4 4 5 5 4 3 4 8 7 4 5 4 3 2 2 1 2 3 2 2 2 2 2
7 11 12 12 11 9 9 8 6 3 3 4 5 4 4 4 5 5 5 6 6 5 6 4 5 5 4 4 3 3 2 2 2 2 2 2 1 1
8 9 11 10 8 7 6 5 3 4 4 5 4 3 4 5 5 4 4 5 4 3 4 4 5 6 4 3 3 3 3 3 3 3 2 2 2 3
9 5 4 4 3 3 3 3 2 3 4 3 4 4 5 5 5 5 4 4 4 5 4 3 4 5 3 4 3 3 3 2 3 3 3 2 2 3
9 5 5 5 5 4 4 4 3 3 4 4 4 5 6 6 6 5 5 5 5 5 5 5 4 3 2 1 3 4 3 3 3 4 3 3 2 2
6 5 5 6 5 4 4 4 4 3 3 4 5 5 6 6 6 7 7 6 6 5 5 5 5 5 4 3 3 6 5 4 4 3 3 3 3 2
5 6 6 5 5 5 4 4 4 3 3 3 4 5 6 6 7 7 7 7 7 6 5 5 5 6 6 5 3 2 6 4 4 4 3 2 1 1
6 6 5 5 5 5 4 4 3 3 3 3 3 4 5 6 6 7 7 10 8 6 7 7 6 7 4 4 3 2 2 6 6 4 4 3 2 2
7 6 5 5 4 4 4 3 3 3 2 2 3 4 4 5 6 7 7 8 7 6 6 5 6 6 4 4 4 4 3 3 4 6 5 4 4 4
7 6 6 5 4 4 4 3 3 3 2 2 3 3 4 4 5 6 7 7 7 7 7 6 5 4 4 4 4 4 5 4 3 3 2 5 5 3
Wind_Direction
222 223 229 232 225 222 215 213 220 243 242 222 214 209 203 201 204 195 195 197 195 193 186 169 156 152 153 166 312 326 329 334 328 325 327 332 332 332
227 228 232 233 229 225 223 225 225 232 245 219 211 194 193 198 205 197 196 197 196 193 187 178 173 170 174 181 183 344 341 340 334 329 334 338 339 340
236 234 238 232 230 228 225 225 229 229 245 243 204 190 190 196 196 194 196 196 195 197 193 187 184 182 185 179 165 12 352 353 353 347 345 341 343 343
236 236 240 237 236 233 228 228 229 225 231 238 214 199 207 199 190 190 193 195 196 197 195 191 188 187 187 179 170 134 8 3 5 0 360 2 0 356
240 241 244 239 245 241 236 234 232 229 226 229 222 203 203 184 180 186 186 195 198 198 196 194 191 190 186 178 169 153 50 6 11 12 11 12 8 4
253 249 246 241 242 237 237 233 228 226 220 219 216 200 199 180 179 190 196 199 202 194 197 193 191 189 187 179 170 164 151 5 18 23 22 17 14 13
271 260 254 254 252 246 242 233 223 224 219 219 219 207 203 189 199 189 196 179 197 190 177 183 174 173 184 182 173 175 181 182 73 43 26 19 21 22
277 275 269 259 259 259 254 245 233 227 222 220 223 220 217 205 187 183 175 171 206 193 172 185 163 177 187 188 187 188 188 181 141 76 33 24 31 36
279 279 284 278 274 259 261 258 249 241 232 225 223 222 213 199 184 186 188 184 192 173 159 182 170 189 201 201 194 193 190 180 159 126 66 44 43 48
279 273 273 274 270 268 262 257 253 248 239 231 226 223 211 193 190 189 182 155 106 142 154 174 175 189 180 202 202 196 190 182 172 158 123 87 65 59
291 284 280 277 278 280 270 256 257 260 251 236 226 222 209 196 182 161 160 165 175 184 176 163 160 152 159 193 211 198 191 185 177 167 155 129 96 74
303 293 288 285 282 281 271 256 255 258 235 223 220 216 206 196 188 182 177 174 159 180 182 163 153 146 168 198 180 189 183 185 180 169 162 154 130 102
302 294 286 290 286 280 276 263 259 255 220 209 205 191 179 176 178 176 176 171 166 179 168 154 150 152 149 154 166 161 161 158 159 160 163 156 145 133
302 296 293 295 291 286 278 267 261 248 211 193 196 200 194 189 172 159 155 143 129 150 161 153 150 159 148 151 177 163 147 158 154 153 161 150 128 140
303 300 298 296 295 288 280 271 255 233 202 206 209 210 197 171 145 130 116 107 86 85 136 155 143 146 148 159 161 162 163 174 168 155 158 157 161 138
309 304 302 298 293 287 281 270 247 221 214 218 209 188 159 152 158 154 150 141 123 95 70 112 145 145 148 152 156 168 167 168 165 165 156 160 185 190
311 305 303 303 295 290 285 272 249 225 222 208 195 182 172 168 167 159 153 149 154 155 145 109 100 103 114 147 157 172 170 173 174 162 156 170 209 211
314 303 299 295 289 284 282 280 262 239 221 208 198 189 181 175 168 162 158 161 163 163 161 154 142 118 95 333 195 174 175 177 168 162 156 163 204 215
314 302 298 296 293 286 277 273 272 253 219 205 199 189 180 175 171 171 170 166 167 166 164 159 158 157 169 196 200 193 174 165 157 161 171 174 183 192
311 302 298 296 293 290 283 279 275 260 227 211 200 189 180 177 177 177 177 175 172 167 165 168 176 180 185 179 167 177 186 166 162 163 161 157 187 227
315 306 301 300 297 292 290 285 276 263 237 214 203 193 185 179 180 179 177 177 173 171 179 187 189 169 134 115 120 140 170 186 171 160 152 144 151 164
317 312 308 302 298 295 293 290 286 276 253 230 209 193 188 183 181 179 177 177 178 176 175 162 149 152 155 171 170 153 147 148 174 170 170 169 162 180
317 313 309 305 299 296 294 287 283 278 257 238 213 192 184 182 180 179 176 175 170 166 160 156 157 162 172 173 166 158 154 152 151 166 203 216 204 174
Height
1481 1482 1483 1484 1486 1487 1488 1489 1489 1486 1485 1486 1487 1488 1488 1489 1490 1490 1490 1490 1491 1491 1490 1490 1490 1490 1491 1491 1490 1490 1489 1489 1488 1488 1487 1487 1486 1486
1473 1475 1476 1477 1478 1479 1480 1481 1481 1480 1478 1478 1479 1481 1481 1482 1483 1484 1484 1484 1485 1485 1485 1485 1485 1485 1485 1486 1486 1485 1485 1485 1485 1484 1483 1483 1483 1483
1465 1467 1468 1469 1470 1471 1472 1472 1473 1473 1472 1471 1472 1473 1474 1475 1476 1477 1478 1478 1478 1479 1480 1479 1480 1480 1481 1481 1481 1481 1481 1480 1480 1480 1480 1480 1479 1479
1457 1459 1460 1461 1462 1463 1463 1464 1465 1465 1465 1464 1464 1465 1467 1468 1469 1470 1471 1472 1472 1473 1474 1474 1474 1475 1476 1476 1476 1476 1477 1477 1477 1477 1477 1477 1476 1476
1451 1451 1452 1453 1454 1455 1455 1456 1456 1457 1457 1457 1457 1458 1459 1460 1461 1463 1464 1465 1466 1467 1468 1469 1469 1470 1471 1471 1472 1472 1472 1473 1473 1473 1474 1474 1473 1474
1444 1444 1445 1445 1446 1447 1447 1447 1448 1448 1449 1449 1449 1450 1451 1453 1454 1455 1456 1458 1459 1461 1462 1463 1464 1465 1466 1467 1467 1468 1469 1469 1470 1470 1470 1471 1471 1471
1437 1438 1438 1438 1438 1439 1439 1439 1440 1440 1440 1441 1441 1442 1444 1445 1446 1447 1449 1451 1453 1454 1456 1457 1458 1460 1461 1462 1463 1464 1465 1466 1466 1467 1467 1468 1469 1469
1431 1431 1431 1431 1431 1431 1431 1432 1432 1432 1432 1433 1433 1434 1435 1437 1438 1440 1442 1444 1446 1448 1450 1451 1453 1454 1456 1458 1459 1460 1461 1462 1463 1464 1465 1466 1466 1467
1426 1426 1425 1425 1425 1424 1423 1423 1424 1424 1425 1426 1425 1426 1428 1429 1431 1433 1434 1436 1438 1442 1444 1445 1448 1449 1452 1453 1455 1456 1458 1459 1460 1461 1462 1463 1464 1465
1422 1421 1419 1418 1418 1417 1416 1416 1416 1416 1416 1417 1418 1419 1420 1422 1424 1426 1428 1431 1433 1436 1438 1439 1442 1444 1447 1449 1450 1452 1454 1455 1457 1458 1459 1461 1462 1463
1417 1415 1414 1413 1412 1412 1411 1409 1409 1408 1409 1410 1410 1411 1413 1414 1417 1419 1421 1424 1426 1429 1431 1434 1436 1439 1442 1444 1446 1448 1450 1452 1453 1455 1457 1458 1460 1461
1411 1410 1409 1408 1407 1406 1405 1403 1402 1402 1402 1403 1403 1404 1405 1407 1409 1412 1415 1418 1419 1423 1425 1428 1430 1434 1437 1439 1442 1444 1446 1448 1450 1452 1454 1456 1457 1459
1406 1404 1403 1402 1401 1399 1399 1397 1396 1396 1396 1397 1397 1398 1399 1401 1403 1406 1409 1412 1415 1417 1420 1423 1425 1429 1432 1435 1437 1440 1443 1445 1447 1449 1451 1453 1455 1457
1402 1399 1398 1397 1395 1394 1393 1391 1391 1391 1391 1391 1391 1392 1394 1396 1398 1401 1404 1407 1410 1413 1416 1418 1421 1424 1427 1430 1433 1436 1439 1441 1443 1446 1448 1450 1452 1454
1397 1395 1393 1392 1390 1388 1387 1386 1386 1385 1385 1385 1386 1387 1389 1391 1394 1396 1399 1402 1405 1408 1411 1414 1417 1420 1424 1426 1429 1432 1435 1437 1440 1443 1445 1448 1450 1452
1393 1390 1389 1387 1385 1384 1382 1381 1381 1381 1381 1381 1382 1383 1385 1387 1389 1391 1394 1397 1400 1403 1407 1410 1413 1417 1420 1423 1426 1428 1431 1434 1436 1439 1442 1445 1447 1449
1389 1386 1384 1382 1380 1379 1378 1377 1376 1376 1376 1376 1377 1379 1380 1382 1385 1387 1390 1393 1395 1398 1402 1406 1409 1412 1416 1419 1422 1425 1427 1430 1433 1436 1439 1441 1444 1446
1385 1382 1379 1378 1376 1375 1374 1372 1372 1372 1372 1372 1373 1374 1376 1378 1380 1383 1386 1388 1392 1395 1398 1401 1405 1408 1412 1415 1419 1421 1424 1426 1429 1432 1435 1438 1440 1443
1381 1378 1376 1374 1372 1371 1370 1369 1367 1367 1367 1368 1369 1370 1372 1374 1376 1379 1381 1384 1388 1391 1394 1397 1400 1404 1407 1411 1414 1418 1420 1423 1425 1428 1431 1434 1437 1440
1377 1374 1372 1370 1368 1367 1366 1365 1364 1363 1363 1364 1365 1367 1368 1370 1372 1374 1377 1380 1383 1387 1390 1393 1396 1400 1404 1408 1411 1414 1417 1419 1422 1424 1427 1430 1433 1436
1373 1371 1369 1367 1365 1363 1362 1361 1360 1360 1360 1360 1361 1363 1365 1367 1369 1371 1373 1376 1380 1383 1385 1389 1393 1398 1401 1404 1407 1409 1413 1416 1418 1421 1424 1427 1429 1431
1370 1368 1365 1363 1361 1360 1359 1358 1357 1356 1357 1357 1358 1360 1361 1363 1365 1367 1370 1373 1376 1379 1383 1386 1390 1393 1396 1400 1403 1406 1409 1412 1415 1418 1421 1424 1425 1428
1367 1365 1362 1361 1359 1357 1356 1355 1354 1354 1354 1354 1355 1357 1358 1360 1362 1364 1367 1369 1372 1376 1379 1382 1386 1389 1393 1396 1399 1403 1406 1408 1411 1414 1417 1420 1422 1425